TimeCDT,TemperatureF,Dew PointF,Humidity,Sea Level PressureIn,VisibilityMPH,Wind Direction,Wind SpeedMPH,Gust SpeedMPH,PrecipitationIn,Events,Conditions,WindDirDegrees,DateUTC
12:15 AM,53.6,51.8,94,29.97,9.0,Calm,Calm,-,0.00,,Clear,0,2012-10-03 05:15:00
12:35 AM,51.8,51.8,100,29.97,10.0,Calm,Calm,-,0.00,,Clear,0,2012-10-03 05:35:00
12:55 AM,51.8,51.8,100,29.97,8.0,Calm,Calm,-,0.00,,Clear,0,2012-10-03 05:55:00
1:15 AM,53.6,51.8,94,29.98,10.0,Calm,Calm,-,0.00,,Clear,0,2012-10-03 06:15:00
1:35 AM,51.8,50.0,94,29.98,9.0,Calm,Calm,-,0.00,,Clear,0,2012-10-03 06:35:00
1:55 AM,50.0,50.0,100,29.99,10.0,Calm,Calm,-,0.00,,Clear,0,2012-10-03 06:55:00
2:15 AM,51.8,50.0,94,29.99,9.0,Calm,Calm,-,0.00,,Clear,0,2012-10-03 07:15:00
2:35 AM,51.8,51.8,100,29.99,10.0,Calm,Calm,-,0.00,,Clear,0,2012-10-03 07:35:00
2:55 AM,51.8,50.0,94,29.99,10.0,Calm,Calm,-,0.00,,Clear,0,2012-10-03 07:55:00
3:15 AM,51.8,50.0,94,29.99,10.0,Calm,Calm,-,0.00,,Clear,0,2012-10-03 08:15:00
3:35 AM,51.8,51.8,100,29.99,9.0,Calm,Calm,-,0.00,,Clear,0,2012-10-03 08:35:00
3:55 AM,51.8,51.8,100,29.99,10.0,Calm,Calm,-,0.00,,Clear,0,2012-10-03 08:55:00
4:15 AM,50.0,50.0,100,30.00,10.0,Calm,Calm,-,0.00,,Clear,0,2012-10-03 09:15:00
4:35 AM,51.8,51.8,100,30.00,10.0,Calm,Calm,-,0.00,,Clear,0,2012-10-03 09:35:00
4:55 AM,50.0,50.0,100,30.01,7.0,Calm,Calm,-,N/A,,Clear,0,2012-10-03 09:55:00
5:15 AM,50.0,50.0,100,30.02,8.0,South,5.8,-,0.00,,Clear,170,2012-10-03 10:15:00
5:35 AM,50.0,50.0,100,30.03,10.0,South,6.9,-,0.00,,Clear,190,2012-10-03 10:35:00
5:55 AM,50.0,50.0,100,30.03,9.0,Calm,Calm,-,0.00,,Clear,0,2012-10-03 10:55:00
6:15 AM,50.0,50.0,100,30.04,10.0,Calm,Calm,-,0.00,,Clear,0,2012-10-03 11:15:00
6:35 AM,51.8,51.8,100,30.04,6.0,Calm,Calm,-,0.00,,Clear,0,2012-10-03 11:35:00
6:50 AM,51.8,51.8,100,30.04,8.0,Calm,Calm,-,N/A,,Partly Cloudy,0,2012-10-03 11:50:00
8:50 AM,59.0,59.0,100,30.08,8.0,South,6.9,-,N/A,,Partly Cloudy,190,2012-10-03 13:50:00
9:50 AM,64.4,59.0,83,30.09,10.0,South,8.1,-,N/A,,Clear,190,2012-10-03 14:50:00
10:45 AM,69.8,57.2,64,30.10,10.0,SW,11.5,-,N/A,,Clear,220,2012-10-03 15:45:00
11:50 AM,73.4,57.2,57,30.09,10.0,South,8.1,-,N/A,,Scattered Clouds,190,2012-10-03 16:50:00
12:45 PM,75.2,57.2,53,30.07,10.0,SSW,9.2,16.1,N/A,,Scattered Clouds,200,2012-10-03 17:45:00
1:45 PM,75.2,55.4,50,30.06,10.0,SW,6.9,16.1,N/A,,Scattered Clouds,220,2012-10-03 18:45:00
2:45 PM,75.2,53.6,47,30.05,10.0,SW,9.2,-,N/A,,Scattered Clouds,220,2012-10-03 19:45:00
3:50 PM,75.2,51.8,44,30.04,10.0,South,9.2,-,N/A,,Scattered Clouds,170,2012-10-03 20:50:00
4:50 PM,75.2,51.8,44,30.05,10.0,South,10.4,-,N/A,,Scattered Clouds,170,2012-10-03 21:50:00
6:50 PM,68.0,53.6,60,30.07,10.0,Calm,Calm,-,N/A,,Partly Cloudy,0,2012-10-03 23:50:00
7:50 PM,64.4,57.2,77,30.08,10.0,Calm,Calm,-,N/A,,Partly Cloudy,0,2012-10-04 00:50:00
8:55 PM,62.6,57.2,82,30.11,10.0,Calm,Calm,-,0.00,,Clear,0,2012-10-04 01:55:00
9:15 PM,60.8,57.2,88,30.11,10.0,South,4.6,-,0.00,,Clear,170,2012-10-04 02:15:00
9:35 PM,62.6,57.2,82,30.11,10.0,Calm,Calm,-,0.00,,Clear,0,2012-10-04 02:35:00
9:55 PM,60.8,57.2,88,30.12,10.0,Calm,Calm,-,0.00,,Clear,0,2012-10-04 02:55:00
10:15 PM,60.8,59.0,94,30.13,10.0,Calm,Calm,-,0.00,,Clear,0,2012-10-04 03:15:00
10:35 PM,60.8,57.2,88,30.13,9.0,Calm,Calm,-,0.00,,Clear,0,2012-10-04 03:35:00
10:55 PM,60.8,57.2,88,30.14,9.0,Calm,Calm,-,N/A,,Clear,0,2012-10-04 03:55:00
11:15 PM,59.0,59.0,100,30.14,10.0,Calm,Calm,-,0.00,,Clear,0,2012-10-04 04:15:00
11:35 PM,59.0,57.2,94,30.14,7.0,Calm,Calm,-,0.00,,Clear,0,2012-10-04 04:35:00
11:55 PM,59.0,59.0,100,30.14,8.0,Calm,Calm,-,0.00,,Clear,0,2012-10-04 04:55:00